sat.trackr.live / text

‹ back to catalog

RAWHIDE-2

NORAD 68632 · 2026-074F

PAYLOAD ACTIVE UNKNOWN

§ Identity

Operator
Country
US
Launch date
2026-04-07
Launch site
AFWTR
Launch vehicle
Mass (kg)
RCS (m²)

External: N2YO · Heavens-Above · Gunter

§ Orbital elements

Epoch: 2026-09-20T00:58:01.072416Z

Period
94.39 min
Inclination
60.0297°
Eccentricity
0.0036348
Mean motion
15.25569623 rev/d
Perigee alt
464.1 km
Apogee alt
514.0 km
Semi-major
6,867.2 km
B*
9.7714e-5
RAAN
173.5262°
Arg perigee
92.6999°
Mean anomaly
267.8243°
Rev number
2,525

§ Raw data

RAWHIDE-21 68632U 26074F   26263.04029019  .00002244  00000+0  97714-4 0  99912 68632  60.0297 173.5262 0036348  92.6999 267.8243 15.25569623 25255

JSON: /api/v1/satellites/68632 · /tle

For live sub-satellite position, see the globe view (requires WebGL).

§ Visibility from observer

Set your observer location to see the next 7 days of passes ≥ 10°. The values pass through the URL so the page stays shareable.

No JS? Fill the form by hand. The geolocation button needs JavaScript.